Location: Newark
(35.2672°N, 80.7344°W)
Time: 11:58:42
(UTC+00:00)

S-56A Canister/Altair - All Passes

Search period start: 25 January 2020 00:00
Search period end: 04 February 2020 00:00
Orbit: 634 x 2498 km, 38.9° (Epoch: 24 January)

Date Brightness Start Highest point End Pass type
(mag) Time Alt. Az. Time Alt. Az. Time Alt. Az.
25 Jan - 01:02:20 10° SW 01:09:37 60° SSE 01:14:42 10° ENE visible
25 Jan - 03:07:57 10° W 03:13:32 61° N 03:17:59 10° ENE visible
25 Jan - 05:12:53 10° WNW 05:17:29 70° NNE 05:22:02 10° E night (unlit)
25 Jan - 07:16:53 10° W 07:20:58 35° SSW 07:25:47 10° SE night (unlit)
25 Jan - 22:26:42 10° S 22:32:34 18° SE 22:37:14 10° ESE daylight
26 Jan - 00:29:06 10° SW 00:36:56 55° SSE 00:42:17 10° ENE visible
26 Jan - 02:34:49 10° W 02:40:55 66° N 02:45:32 10° ENE visible
26 Jan - 04:40:09 10° WNW 04:44:56 64° N 04:49:21 10° E night (unlit)
26 Jan - 06:44:17 10° W 06:48:26 40° SSW 06:53:07 10° SE night (unlit)
26 Jan - 21:53:58 10° S 21:59:40 17° SE 22:04:18 10° ESE daylight
26 Jan - 23:55:50 10° SW 00:04:11 50° SSE 00:09:51 10° E visible
27 Jan - 02:01:35 10° W 02:08:17 71° NNW 02:13:07 10° ENE visible
27 Jan - 04:07:18 10° WNW 04:12:22 61° N 04:16:45 10° E night (unlit)
27 Jan - 06:11:38 10° W 06:15:56 47° SSW 06:20:30 10° SE night (unlit)
27 Jan - 21:21:21 10° S 21:26:43 15° SE 21:31:12 10° ESE daylight
27 Jan - 23:22:32 10° SW 23:31:24 46° SSE 23:37:23 10° E visible
28 Jan - 01:28:15 10° WSW 01:35:37 77° NNW 01:40:43 10° ENE visible
28 Jan - 03:34:21 10° WNW 03:39:47 59° N 03:44:12 10° E visible
28 Jan - 05:38:58 10° WNW 05:43:26 56° SSW 05:47:55 10° SE night (unlit)
28 Jan - 07:45:35 10° SW 07:46:40 11° SW 07:47:46 10° SSW night (unlit)
28 Jan - 20:48:56 10° SSE 20:53:43 14° SE 20:57:51 10° ESE daylight
28 Jan - 22:49:11 10° SW 22:58:32 43° SSE 23:04:53 10° E daylight
29 Jan - 00:54:50 10° WSW 01:02:54 84° NNW 01:08:20 10° ENE visible
29 Jan - 03:01:17 10° WNW 03:07:10 59° N 03:11:42 10° E visible
29 Jan - 05:06:13 10° WNW 05:10:57 66° SSW 05:15:22 10° ESE night (unlit)
29 Jan - 07:12:02 10° WSW 07:14:05 13° SW 07:16:14 10° S night (unlit)
29 Jan - 20:16:50 10° SSE 20:20:40 12° SE 20:24:07 10° ESE daylight
29 Jan - 22:15:52 10° SSW 22:25:37 39° SSE 22:32:20 10° E daylight
30 Jan - 00:21:20 10° WSW 00:30:09 90° W 00:35:56 10° ENE visible
30 Jan - 02:28:04 10° W 02:34:30 60° N 02:39:15 10° E visible
30 Jan - 04:33:24 10° WNW 04:38:27 77° SSW 04:42:51 10° ESE night (unlit)
30 Jan - 06:38:52 10° WSW 06:41:32 16° SW 06:44:19 10° S night (unlit)
30 Jan - 19:45:38 10° SSE 19:47:36 11° SE 19:49:28 10° SE daylight
30 Jan - 21:42:32 10° SSW 21:52:38 37° SSE 21:59:43 10° E daylight
30 Jan - 23:47:47 10° WSW 23:57:21 84° SSE 00:03:32 10° ENE visible
31 Jan - 01:54:45 10° W 02:01:49 61° N 02:06:48 10° ENE visible
31 Jan - 04:00:30 10° WNW 04:05:55 87° SSW 04:10:22 10° ESE night (unlit)
31 Jan - 06:05:49 10° W 06:09:02 19° SW 06:12:15 10° S night (unlit)
31 Jan - 21:09:15 10° SSW 21:19:36 34° SSE 21:27:02 10° E daylight
31 Jan - 23:14:10 10° WSW 23:24:29 78° SSE 23:31:07 10° ENE visible
01 Feb - 01:21:19 10° W 01:29:05 64° N 01:34:23 10° ENE visible
01 Feb - 03:27:29 10° WNW 03:33:21 84° NNE 03:37:54 10° ESE visible
01 Feb - 05:32:49 10° W 05:36:33 23° SW 05:40:07 10° SSE night (unlit)
01 Feb - 20:36:01 10° SSW 20:46:31 31° SE 20:54:15 10° E daylight
01 Feb - 22:40:32 10° WSW 22:51:33 73° SSE 22:58:40 10° ENE daylight
02 Feb - 00:47:46 10° W 00:56:18 67° N 01:01:58 10° ENE visible
02 Feb - 02:54:22 10° WNW 03:00:45 78° NNE 03:05:27 10° E visible
02 Feb - 04:59:49 10° W 05:04:05 29° SW 05:07:56 10° SSE night (unlit)
02 Feb - 20:02:51 10° SSW 20:13:22 29° SE 20:21:23 10° E daylight
02 Feb - 22:06:53 10° SW 22:18:33 68° SSE 22:26:09 10° ENE daylight
03 Feb - 00:14:07 10° W 00:23:28 71° N 00:29:33 10° ENE visible
03 Feb - 02:21:08 10° WNW 02:28:06 73° NNE 02:33:02 10° E visible
03 Feb - 04:26:47 10° W 04:31:37 36° SSW 04:35:43 10° SSE night (unlit)
03 Feb - 19:29:48 10° S 19:40:11 26° SE 19:48:23 10° E daylight
03 Feb - 21:33:15 10° SW 21:45:29 63° SSE 21:53:37 10° ENE daylight
03 Feb - 23:40:24 10° W 23:50:35 74° NNW 23:57:07 10° ENE visible
